Owatonna, Minnesota, United States (55060)
Lat: 44.08N, Lon: 93.23W
Wx Zone: MNZ085
Local Info
Past Weather Observations for Today

NOTE: This archive is for the closest National Weather Service station to Owatonna. Information may differ from the station used for current weather conditions.

Click here for Long-term Archive

Time Weather Temperature Dewpoint Humidity Pressure Winds Precip Visibility
15:55
Partly Cloudy
70°F / 21°C 52°F / 11°C 53% 30.21 in
(1023 mb)
ENE 6.9 mph
(ENE 11 kph)
- 10SM
15:35
Mostly Cloudy
72°F / 22°C 52°F / 11°C 50% 30.21 in
(1023 mb)
NE 9.2 mph
(NE 15 kph)
- 10SM
15:16
Mostly Cloudy
70°F / 21°C 52°F / 11°C 53% 30.21 in
(1023 mb)
NE 6.9 mph
(NE 11 kph)
- 10SM
14:55
Partly Cloudy
72°F / 22°C 52°F / 11°C 50% 30.21 in
(1023 mb)
NE 6.9 mph
(NE 11 kph)
- 10SM
14:36
Partly Cloudy
70°F / 21°C 52°F / 11°C 53% 30.21 in
(1023 mb)
N 9.2 mph
(N 15 kph)
- 10SM
14:16
Partly Cloudy
70°F / 21°C 52°F / 11°C 53% 30.24 in
(1024 mb)
N 9.2 mph
(N 15 kph)
- 10SM
13:55
Mostly Cloudy
70°F / 21°C 52°F / 11°C 53% 30.24 in
(1024 mb)
NE 9.2 mph
(NE 15 kph)
- 10SM
13:35
Partly Cloudy
70°F / 21°C 52°F / 11°C 53% 30.24 in
(1024 mb)
ENE 9.2 mph
(ENE 15 kph)
- 10SM
13:16
Partly Cloudy
70°F / 21°C 52°F / 11°C 53% 30.24 in
(1024 mb)
NE 10.4 mph
(NE 17 kph)
- 10SM
12:55
Partly Cloudy
70°F / 21°C 52°F / 11°C 53% 30.27 in
(1025 mb)
NNE 9.2 mph
(NNE 15 kph)
- 10SM
12:35
Clear
70°F / 21°C 52°F / 11°C 53% 30.27 in
(1025 mb)
NE 5.8 mph
(NE 9 kph)
- 10SM
12:15
Clear
70°F / 21°C 52°F / 11°C 53% 30.27 in
(1025 mb)
NE 10.4 mph
(NE 17 kph)
- 10SM
11:55
Partly Cloudy
70°F / 21°C 52°F / 11°C 53% 30.3 in
(1026 mb)
NE 10.4 mph
(NE 17 kph)
- 10SM
11:36
Partly Cloudy
68°F / 20°C 50°F / 10°C 53% 30.3 in
(1026 mb)
NE 9.2 mph
(NE 15 kph)
- 10SM
11:15
Clear
68°F / 20°C 52°F / 11°C 56% 30.3 in
(1026 mb)
NE 9.2 mph
(NE 15 kph)
- 10SM
10:55
Clear
66°F / 19°C 52°F / 11°C 60% 30.3 in
(1026 mb)
N 11.5 mph
(N 19 kph)
- 10SM
10:35
Clear
66°F / 19°C 52°F / 11°C 60% 30.33 in
(1027 mb)
NE 10.4 mph
(NE 17 kph)
- 10SM
10:16
Clear
64°F / 18°C 52°F / 11°C 64% 30.33 in
(1027 mb)
NE 9.2 mph
(NE 15 kph)
- 10SM
09:55
Clear
63°F / 17°C 54°F / 12°C 73% 30.33 in
(1027 mb)
ENE 9.2 mph
(ENE 15 kph)
- 10SM
09:35
Clear
61°F / 16°C 52°F / 11°C 72% 30.33 in
(1027 mb)
ENE 8.1 mph
(ENE 13 kph)
- 10SM
09:15
Clear
61°F / 16°C 54°F / 12°C 77% 30.33 in
(1027 mb)
NE 6.9 mph
(NE 11 kph)
- 10SM
08:55
Clear
59°F / 15°C 52°F / 11°C 77% 30.33 in
(1027 mb)
ENE 4.6 mph
(ENE 7 kph)
- 10SM
08:35
Clear
57°F / 14°C 54°F / 12°C 88% 30.33 in
(1027 mb)
NE 3.5 mph
(NE 6 kph)
- 10SM
08:15
Clear
55°F / 13°C 52°F / 11°C 88% 30.33 in
(1027 mb)
Calm - 10SM
07:55
Clear
54°F / 12°C 52°F / 11°C 94% 30.36 in
(1028 mb)
ENE 3.5 mph
(ENE 6 kph)
- 10SM
07:35
Clear
52°F / 11°C 50°F / 10°C 94% 30.36 in
(1028 mb)
ENE 3.5 mph
(ENE 6 kph)
- 10SM
07:15
Partly Cloudy
50°F / 10°C 48°F / 9°C 94% 30.36 in
(1028 mb)
Calm - 7SM
06:55
Overcast
Fog
45°F / 7°C 43°F / 6°C 93% 30.36 in
(1028 mb)
Calm - M1/4SM
06:35
Overcast
Fog
43°F / 6°C 41°F / 5°C 93% 30.36 in
(1028 mb)
Calm - M1/4SM
06:15
Overcast
Fog
45°F / 7°C 43°F / 6°C 93% 30.36 in
(1028 mb)
Calm - M1/4SM
05:55
Overcast
Fog
45°F / 7°C 43°F / 6°C 93% 30.36 in
(1028 mb)
Calm - 1/4SM
05:36
Clear
Fog And Mist
45°F / 7°C 43°F / 6°C 93% 30.36 in
(1028 mb)
Calm - 4SM
05:15
Clear
Fog And Mist
46°F / 8°C 45°F / 7°C 93% 30.36 in
(1028 mb)
Calm - 5SM
04:55
Clear
50°F / 10°C 46°F / 8°C 88% 30.36 in
(1028 mb)
E 3.5 mph
(E 6 kph)
- 10SM
04:35
Clear
50°F / 10°C 48°F / 9°C 94% 30.36 in
(1028 mb)
Calm - 10SM
04:15
Clear
50°F / 10°C 46°F / 8°C 88% 30.36 in
(1028 mb)
E 3.5 mph
(E 6 kph)
- 10SM
03:55
Clear
50°F / 10°C 46°F / 8°C 88% 30.36 in
(1028 mb)
E 4.6 mph
(E 7 kph)
- 10SM
03:35
Clear
52°F / 11°C 48°F / 9°C 88% 30.36 in
(1028 mb)
E 3.5 mph
(E 6 kph)
- 10SM
03:15
Clear
52°F / 11°C 48°F / 9°C 88% 30.36 in
(1028 mb)
E 3.5 mph
(E 6 kph)
- 10SM
02:55
Clear
52°F / 11°C 48°F / 9°C 88% 30.36 in
(1028 mb)
E 3.5 mph
(E 6 kph)
- 10SM
02:36
Clear
52°F / 11°C 48°F / 9°C 88% 30.36 in
(1028 mb)
E 4.6 mph
(E 7 kph)
- 10SM
02:17
Clear
52°F / 11°C 48°F / 9°C 88% 30.36 in
(1028 mb)
E 5.8 mph
(E 9 kph)
- 10SM
01:55
Clear
52°F / 11°C 48°F / 9°C 88% 30.36 in
(1028 mb)
ENE 4.6 mph
(ENE 7 kph)
- 10SM
01:35
Clear
54°F / 12°C 50°F / 10°C 88% 30.36 in
(1028 mb)
ENE 6.9 mph
(ENE 11 kph)
- 10SM
00:55
Clear
52°F / 11°C 48°F / 9°C 88% 30.36 in
(1028 mb)
ENE 5.8 mph
(ENE 9 kph)
- 10SM
00:35
Clear
48°F / 9°C 46°F / 8°C 94% 30.36 in
(1028 mb)
Calm - 10SM
00:16
Clear
48°F / 9°C 46°F / 8°C 94% 30.36 in
(1028 mb)
Calm - 10SM
Time Weather Temperature Dewpoint Humidity Pressure Winds Precip Visibility


Weather for websites

WeatherForYou.com, LLC is not responsible for any damages or problems caused by this service. Current weather conditions are obtained from the closest station including government and personal stations which may have varying degrees of accuracy. Weather forecasts are derived from the NOAA NDFD. Like all things, this site belongs to Jesus Christ... He just trusts us to maintain it. If you have any questions or comments email webmaster@weatherforyou.com

Copyright © 2016, WeatherForYou.com LLC. All rights reserved.